SVR154 URMM-UUDD

Flight info

Callsign SVR154
Flight time N/A
Altitude 33000
Route URILU5M URILU R227 SAFLA DCT MOMER DCT URBUZ/K0832F340 DCT LIDUS DCT IDORI DCT OBABI/K0822F350 T619 LUGIL/K0815F340 T619 UMRAL DCT LAMKO DCT IDPIS DCT OLOPI OLOPI3N
Aircraft A321/M-SDE3FGHIRWY/LB1

Departure

Time 2026-04-14 12:37
Airport Mineralnye Vody Airport (URMM)

Arrival

Time N/A
Airport Domodedovo International Airport (UUDD)
Time Latitude Longitude Altitude Speed Heading
2026-04-14 12:13 44.21777 43.08942 1051 ft 0 kts 212°
2026-04-14 12:23 44.21777 43.08943 1051 ft 0 kts 212°
2026-04-14 12:28 44.21790 43.08953 1051 ft 2 kts 213°
2026-04-14 12:29 44.21804 43.08966 1051 ft 2 kts 212°
2026-04-14 12:29 44.21818 43.08978 1051 ft 2 kts 211°
2026-04-14 12:29 44.21833 43.08989 1051 ft 2 kts 207°
2026-04-14 12:29 44.21848 43.08997 1051 ft 2 kts 168°
2026-04-14 12:30 44.21863 43.08987 1051 ft 2 kts 128°
2026-04-14 12:30 44.21872 43.08968 1051 ft 2 kts 120°
2026-04-14 12:30 44.21879 43.08953 1051 ft 1 kts 122°
2026-04-14 12:30 44.21879 43.08952 1051 ft 0 kts 122°
2026-04-14 12:33 44.21879 43.08953 1051 ft 1 kts 122°
2026-04-14 12:33 44.21874 43.08964 1051 ft 2 kts 122°
2026-04-14 12:33 44.21858 43.08999 1051 ft 8 kts 122°
2026-04-14 12:34 44.21817 43.09079 1051 ft 13 kts 124°
2026-04-14 12:34 44.21761 43.09202 1051 ft 17 kts 122°
2026-04-14 12:34 44.21689 43.09328 1051 ft 17 kts 135°
2026-04-14 12:34 44.21623 43.09462 1051 ft 18 kts 122°
2026-04-14 12:35 44.21556 43.09608 1051 ft 18 kts 122°
2026-04-14 12:35 44.21518 43.09762 1051 ft 17 kts 75°
2026-04-14 12:35 44.21539 43.09929 1051 ft 18 kts 78°
2026-04-14 12:35 44.21572 43.10128 1051 ft 23 kts 77°
2026-04-14 12:36 44.21665 43.10264 1050 ft 20 kts 41°
2026-04-14 12:36 44.21759 43.10313 1052 ft 11 kts 310°
2026-04-14 12:36 44.21806 43.10219 1052 ft 13 kts 302°
2026-04-14 12:36 44.21957 43.09884 1056 ft 79 kts 301°
2026-04-14 12:37 44.22377 43.08960 1054 ft 144 kts 302°
2026-04-14 12:37 44.23002 43.07595 1274 ft 180 kts 301°
2026-04-14 12:37 44.23665 43.06146 1809 ft 176 kts 288°
2026-04-14 12:37 44.24278 43.04698 2240 ft 175 kts 290°
2026-04-14 12:38 44.25583 43.01676 2855 ft 193 kts 301°
2026-04-14 12:38 44.26345 43.00030 2967 ft 213 kts 301°
2026-04-14 12:38 44.27186 42.98205 3121 ft 231 kts 304°
2026-04-14 12:39 44.28058 42.96309 3432 ft 238 kts 298°
2026-04-14 12:39 44.28951 42.94316 3866 ft 240 kts 294°
2026-04-14 12:39 44.29177 42.93772 3980 ft 240 kts 294°
2026-04-14 12:40 44.30131 42.91924 4323 ft 245 kts 319°
2026-04-14 12:40 44.31733 42.91053 4712 ft 257 kts 355°
2026-04-14 12:40 44.33482 42.91693 5071 ft 272 kts 30°
2026-04-14 12:40 44.34732 42.93701 5427 ft 283 kts 65°
2026-04-14 12:41 44.35009 42.96431 5780 ft 289 kts 100°
2026-04-14 12:41 44.34376 42.99097 6160 ft 291 kts 117°
2026-04-14 12:41 44.33463 43.01620 6539 ft 293 kts 118°
2026-04-14 12:41 44.32529 43.04165 6896 ft 295 kts 118°
2026-04-14 12:42 44.31590 43.06716 7284 ft 297 kts 118°
2026-04-14 12:42 44.30714 43.09329 7671 ft 298 kts 109°
2026-04-14 12:42 44.30092 43.11981 8377 ft 285 kts 105°
2026-04-14 12:42 44.29542 43.14706 8523 ft 296 kts 105°
2026-04-14 12:43 44.29004 43.17502 8800 ft 300 kts 105°
2026-04-14 12:43 44.28453 43.20333 9167 ft 302 kts 105°
2026-04-14 12:43 44.27888 43.23157 9539 ft 303 kts 105°
2026-04-14 12:43 44.27287 43.25978 9900 ft 304 kts 107°
2026-04-14 12:44 44.26645 43.28802 10172 ft 308 kts 108°
2026-04-14 12:44 44.25971 43.31695 10299 ft 317 kts 108°
2026-04-14 12:44 44.25282 43.34645 10424 ft 324 kts 108°
2026-04-14 12:45 44.23871 43.40684 10682 ft 335 kts 108°
2026-04-14 12:45 44.23134 43.43838 10820 ft 339 kts 108°
2026-04-14 12:45 44.22412 43.46925 11004 ft 340 kts 108°
2026-04-14 12:45 44.21669 43.50112 11212 ft 341 kts 108°
2026-04-14 12:46 44.20935 43.53260 11443 ft 342 kts 108°
2026-04-14 12:46 44.20207 43.56378 11630 ft 342 kts 108°
2026-04-14 12:46 44.19472 43.59527 11836 ft 343 kts 108°
2026-04-14 12:46 44.18731 43.62692 12043 ft 343 kts 108°
2026-04-14 12:47 44.17992 43.65845 12307 ft 342 kts 108°
2026-04-14 12:47 44.17254 43.68992 12572 ft 341 kts 108°
2026-04-14 12:47 44.16647 43.72167 12836 ft 340 kts 99°
2026-04-14 12:47 44.16278 43.75422 13026 ft 341 kts 98°
2026-04-14 12:48 44.15913 43.78698 13158 ft 344 kts 98°
2026-04-14 12:48 44.15542 43.82005 13307 ft 346 kts 98°
2026-04-14 12:48 44.15168 43.85316 13451 ft 348 kts 98°
2026-04-14 12:48 44.14790 43.88645 13613 ft 349 kts 98°
2026-04-14 12:49 44.14411 43.91981 13789 ft 349 kts 98°
2026-04-14 12:49 44.14030 43.95328 13960 ft 350 kts 98°
2026-04-14 12:49 44.13649 43.98667 14110 ft 350 kts 98°
2026-04-14 12:49 44.13263 44.02018 14250 ft 351 kts 98°
2026-04-14 12:50 44.12871 44.05379 14389 ft 352 kts 98°
2026-04-14 12:50 44.12079 44.12127 14670 ft 353 kts 98°
2026-04-14 12:50 44.11685 44.15489 14807 ft 353 kts 98°
2026-04-14 12:51 44.11289 44.18869 14944 ft 354 kts 98°
2026-04-14 12:51 44.10891 44.22251 15081 ft 355 kts 98°
2026-04-14 12:51 44.10649 44.25662 15216 ft 354 kts 89°
2026-04-14 12:51 44.10798 44.29067 15347 ft 353 kts 80°
2026-04-14 12:52 44.11240 44.32381 15474 ft 353 kts 77°
2026-04-14 12:52 44.11709 44.35783 15609 ft 353 kts 78°
2026-04-14 12:52 44.12158 44.39090 15738 ft 353 kts 78°
2026-04-14 12:52 44.12613 44.42459 15873 ft 354 kts 78°
2026-04-14 12:53 44.13065 44.45822 15997 ft 354 kts 78°
2026-04-14 12:53 44.13518 44.49193 16134 ft 355 kts 78°
2026-04-14 12:53 44.13975 44.52573 16262 ft 355 kts 78°
2026-04-14 12:53 44.14431 44.55940 16396 ft 355 kts 79°
2026-04-14 12:54 44.14885 44.59319 16526 ft 355 kts 79°
2026-04-14 12:54 44.15337 44.62702 16655 ft 355 kts 79°
2026-04-14 12:54 44.15786 44.66080 16788 ft 355 kts 79°
2026-04-14 12:54 44.16233 44.69456 16922 ft 355 kts 79°
2026-04-14 12:55 44.16681 44.72833 17054 ft 354 kts 79°
2026-04-14 12:55 44.17128 44.76206 17184 ft 354 kts 79°
2026-04-14 12:55 44.17572 44.79561 17321 ft 354 kts 80°
2026-04-14 12:55 44.18019 44.82953 17457 ft 354 kts 80°
2026-04-14 12:56 44.18461 44.86326 17596 ft 354 kts 80°
2026-04-14 12:56 44.18901 44.89686 17728 ft 354 kts 80°
2026-04-14 12:56 44.19345 44.93069 17865 ft 354 kts 81°
2026-04-14 12:56 44.19786 44.96441 18004 ft 353 kts 81°
2026-04-14 12:57 44.20225 44.99820 18143 ft 353 kts 81°
2026-04-14 12:57 44.20659 45.03175 18278 ft 353 kts 81°
2026-04-14 12:57 44.21092 45.06538 18416 ft 353 kts 81°
2026-04-14 12:57 44.21527 45.09902 18544 ft 352 kts 81°
2026-04-14 12:58 44.21960 45.13260 18666 ft 352 kts 81°
2026-04-14 12:58 44.22248 45.15490 18744 ft 352 kts 81°
2026-04-14 12:58 44.22681 45.18842 18870 ft 351 kts 81°
2026-04-14 12:58 44.23113 45.22202 18861 ft 355 kts 82°
2026-04-14 12:59 44.23554 45.25638 18618 ft 365 kts 81°
2026-04-14 12:59 44.24000 45.29134 18288 ft 367 kts 81°
2026-04-14 12:59 44.24445 45.32640 17976 ft 367 kts 81°
2026-04-14 12:59 44.24888 45.36148 17736 ft 366 kts 81°
2026-04-14 13:00 44.25327 45.39632 17525 ft 365 kts 81°
2026-04-14 13:00 44.25767 45.43123 17347 ft 364 kts 81°
2026-04-14 13:00 44.26204 45.46597 17179 ft 363 kts 81°
2026-04-14 13:00 44.26640 45.50061 17017 ft 362 kts 81°
2026-04-14 13:01 44.27069 45.53486 17265 ft 353 kts 81°
2026-04-14 13:01 44.27528 45.56901 16900 ft 360 kts 78°
2026-04-14 13:01 44.27997 45.60328 16512 ft 359 kts 80°
2026-04-14 13:01 44.28422 45.63758 16241 ft 358 kts 76°
2026-04-14 13:02 44.28832 45.67173 16018 ft 357 kts 82°
2026-04-14 13:02 44.29228 45.70583 15825 ft 355 kts 81°
2026-04-14 13:02 44.29609 45.73989 15614 ft 354 kts 81°
2026-04-14 13:02 44.30007 45.77377 15436 ft 354 kts 82°
2026-04-14 13:03 44.30386 45.80767 15246 ft 353 kts 82°
2026-04-14 13:03 44.30717 45.84149 15094 ft 351 kts 82°
2026-04-14 13:03 44.30789 45.84958 15066 ft 351 kts 83°
2026-04-14 13:03 44.31062 45.87396 14948 ft 350 kts 76°
2026-04-14 13:04 44.31680 45.90680 14815 ft 349 kts 73°
2026-04-14 13:04 44.32356 45.93887 14660 ft 349 kts 77°
2026-04-14 13:04 44.32784 45.97222 14479 ft 349 kts 79°
2026-04-14 13:04 44.32958 46.00608 14301 ft 350 kts 86°
2026-04-14 13:05 44.33066 46.03981 14183 ft 347 kts 84°
2026-04-14 13:05 44.33393 46.07323 14059 ft 346 kts 80°
2026-04-14 13:05 44.33836 46.10623 13920 ft 345 kts 78°
2026-04-14 13:05 44.34317 46.13913 13758 ft 345 kts 78°
2026-04-14 13:06 44.34787 46.17193 13598 ft 344 kts 78°
2026-04-14 13:06 44.35260 46.20475 13419 ft 344 kts 73°
2026-04-14 13:06 44.35296 46.20716 13411 ft 344 kts 73°
2026-04-14 13:06 44.35671 46.23223 13258 ft 343 kts 78°
2026-04-14 13:07 44.36093 46.26501 13081 ft 343 kts 78°
2026-04-14 13:07 44.36137 46.26862 13067 ft 343 kts 79°
2026-04-14 13:08 44.36327 46.28480 13102 ft 338 kts 77°
2026-04-14 13:08 44.36684 46.31696 13199 ft 336 kts 77°
2026-04-14 13:08 44.37048 46.34960 13011 ft 341 kts 76°
2026-04-14 13:08 44.37481 46.38228 12822 ft 342 kts 79°
2026-04-14 13:09 44.37875 46.41506 12652 ft 341 kts 81°
2026-04-14 13:09 44.38214 46.44777 12483 ft 340 kts 81°
2026-04-14 13:09 44.38544 46.48057 12320 ft 340 kts 81°
2026-04-14 13:09 44.38887 46.51325 12167 ft 339 kts 80°
2026-04-14 13:10 44.39243 46.54579 12038 ft 339 kts 80°
2026-04-14 13:10 44.39609 46.57833 11925 ft 338 kts 80°
2026-04-14 13:10 44.39979 46.61073 11808 ft 338 kts 79°
2026-04-14 13:10 44.40354 46.64319 11701 ft 337 kts 79°
2026-04-14 13:11 44.40731 46.67551 11612 ft 337 kts 79°
2026-04-14 13:11 44.41108 46.70784 11520 ft 336 kts 79°
2026-04-14 13:11 44.41476 46.73997 11298 ft 335 kts 79°
2026-04-14 13:11 44.41842 46.77225 11067 ft 334 kts 79°
2026-04-14 13:12 44.42205 46.80421 10838 ft 333 kts 79°
2026-04-14 13:12 44.42566 46.83620 10616 ft 332 kts 79°
2026-04-14 13:12 44.43084 46.86737 10397 ft 327 kts 65°
2026-04-14 13:12 44.44251 46.89415 10182 ft 321 kts 45°
2026-04-14 13:13 44.45953 46.91346 9884 ft 303 kts 25°
2026-04-14 13:13 44.47839 46.92353 9451 ft 284 kts 13°
2026-04-14 13:13 44.49726 46.93120 9078 ft 281 kts 13°
2026-04-14 13:13 44.51601 46.93893 9300 ft 282 kts 13°
2026-04-14 13:14 44.53486 46.94673 10093 ft 282 kts 14°
2026-04-14 13:14 44.55411 46.95467 10442 ft 299 kts 14°
2026-04-14 13:14 44.57475 46.96321 10575 ft 320 kts 14°
2026-04-14 13:14 44.59680 46.97244 10724 ft 340 kts 14°
2026-04-14 13:15 44.61975 46.98207 11156 ft 348 kts 14°
2026-04-14 13:15 44.64309 46.99184 11732 ft 352 kts 14°
2026-04-14 13:15 44.66673 47.00171 12322 ft 356 kts 14°
2026-04-14 13:15 44.69066 47.01173 12908 ft 361 kts 14°
2026-04-14 13:16 44.71484 47.02190 13501 ft 365 kts 14°
2026-04-14 13:16 44.73931 47.03220 14075 ft 370 kts 15°
2026-04-14 13:16 44.76405 47.04260 14595 ft 373 kts 15°
2026-04-14 13:16 44.78913 47.05315 15151 ft 377 kts 15°
2026-04-14 13:17 44.81402 47.06363 15688 ft 380 kts 15°
2026-04-14 13:17 44.83950 47.07434 16252 ft 384 kts 16°
2026-04-14 13:17 44.86517 47.08517 16806 ft 387 kts 16°
2026-04-14 13:17 44.89148 47.09629 17353 ft 391 kts 16°
2026-04-14 13:18 44.91729 47.10718 17898 ft 394 kts 17°
2026-04-14 13:18 44.94407 47.11853 18452 ft 398 kts 17°
2026-04-14 13:18 44.97075 47.12985 18901 ft 402 kts 17°
2026-04-14 13:18 44.99732 47.14109 19360 ft 406 kts 18°
2026-04-14 13:19 45.02448 47.15257 19850 ft 408 kts 18°
2026-04-14 13:19 45.05174 47.16409 20358 ft 410 kts 18°
2026-04-14 13:19 45.07923 47.17572 20844 ft 413 kts 19°
2026-04-14 13:19 45.10684 47.18745 21307 ft 416 kts 19°
2026-04-14 13:20 45.13460 47.19928 21743 ft 419 kts 19°
2026-04-14 13:21 45.24359 47.24574 23339 ft 431 kts 21°
2026-04-14 13:21 45.27243 47.25807 23724 ft 434 kts 21°
2026-04-14 13:21 45.30099 47.27029 24037 ft 437 kts 21°
2026-04-14 13:21 45.33027 47.28284 24341 ft 440 kts 21°
2026-04-14 13:22 45.35964 47.29544 24655 ft 443 kts 22°
2026-04-14 13:22 45.38931 47.30817 24965 ft 446 kts 22°
2026-04-14 13:22 45.41912 47.32099 25273 ft 449 kts 22°
2026-04-14 13:22 45.44917 47.33394 25578 ft 452 kts 22°
2026-04-14 13:23 45.47934 47.34695 25878 ft 455 kts 22°
2026-04-14 13:23 45.50980 47.36008 26180 ft 458 kts 23°
2026-04-14 13:23 45.54035 47.37326 26470 ft 461 kts 23°
2026-04-14 13:23 45.57116 47.38659 26758 ft 464 kts 23°
2026-04-14 13:24 45.60208 47.39999 27040 ft 466 kts 23°
2026-04-14 13:24 45.66458 47.42706 27600 ft 472 kts 24°
2026-04-14 13:24 45.69608 47.44073 27870 ft 474 kts 24°
2026-04-14 13:25 45.72776 47.45448 28150 ft 477 kts 24°
2026-04-14 13:25 45.75958 47.46835 28425 ft 479 kts 24°
2026-04-14 13:26 45.85609 47.51055 29251 ft 487 kts 24°
2026-04-14 13:26 45.88845 47.52469 29648 ft 487 kts 24°
2026-04-14 13:26 45.92087 47.53885 30035 ft 487 kts 25°
2026-04-14 13:26 45.95326 47.55303 30375 ft 487 kts 24°
2026-04-14 13:27 45.98583 47.56697 30686 ft 489 kts 21°
2026-04-14 13:27 46.01970 47.57466 30989 ft 499 kts
2026-04-14 13:27 46.05470 47.57294 31303 ft 507 kts 356°
2026-04-14 13:27 46.08929 47.56151 31610 ft 513 kts 343°
2026-04-14 13:28 46.12197 47.54062 31922 ft 516 kts 330°
2026-04-14 13:28 46.15121 47.51096 32246 ft 516 kts 318°
2026-04-14 13:28 46.17754 47.47581 32577 ft 514 kts 316°
2026-04-14 13:28 46.20353 47.44048 32924 ft 513 kts 316°
2026-04-14 13:29 46.22945 47.40509 33074 ft 512 kts 315°
2026-04-14 13:29 46.25520 47.36987 33093 ft 508 kts 315°
2026-04-14 13:29 46.30650 47.29977 33090 ft 507 kts 315°
2026-04-14 13:30 46.35768 47.22988 33090 ft 506 kts 315°
2026-04-14 13:30 46.40895 47.15987 33092 ft 506 kts 315°
2026-04-14 13:31 46.45977 47.09011 33093 ft 506 kts 315°
2026-04-14 13:31 46.51082 47.01971 33090 ft 506 kts 315°
2026-04-14 13:32 46.56182 46.94918 33096 ft 506 kts 315°
2026-04-14 13:32 46.61279 46.87849 33097 ft 506 kts 315°
2026-04-14 13:33 46.66397 46.80734 33096 ft 506 kts 315°
2026-04-14 13:33 46.71450 46.73698 33091 ft 506 kts 315°
2026-04-14 13:34 46.79063 46.63054 33095 ft 505 kts 314°
2026-04-14 13:35 46.84129 46.55952 33089 ft 505 kts 314°
2026-04-14 13:35 46.89195 46.48834 33091 ft 504 kts 314°
2026-04-14 13:36 46.94243 46.41714 33092 ft 504 kts 314°
2026-04-14 13:36 46.99279 46.34586 33087 ft 503 kts 314°
2026-04-14 13:37 47.04355 46.27500 33085 ft 504 kts 319°
2026-04-14 13:37 47.10117 46.21661 33076 ft 504 kts 326°
2026-04-14 13:38 47.16005 46.16060 33073 ft 504 kts 326°
2026-04-14 13:38 47.21867 46.10437 33072 ft 503 kts 326°
2026-04-14 13:39 47.27732 46.04792 33069 ft 503 kts 326°
2026-04-14 13:39 47.33583 45.99150 33073 ft 503 kts 326°
2026-04-14 13:40 47.39442 45.93517 33072 ft 502 kts 326°
2026-04-14 13:40 47.45275 45.87869 33073 ft 501 kts 326°
2026-04-14 13:41 47.51045 45.82240 33071 ft 500 kts 326°
2026-04-14 13:41 47.56873 45.76561 33070 ft 500 kts 326°
2026-04-14 13:42 47.62678 45.70895 33067 ft 499 kts 325°
2026-04-14 13:42 47.68480 45.65218 33062 ft 499 kts 325°
2026-04-14 13:43 47.74265 45.59539 33064 ft 499 kts 325°
2026-04-14 13:43 47.80063 45.53843 33065 ft 498 kts 325°
2026-04-14 13:44 47.85837 45.48149 33061 ft 497 kts 325°
2026-04-14 13:44 47.91592 45.42443 33058 ft 496 kts 325°
2026-04-14 13:45 47.97336 45.36729 33060 ft 496 kts 325°
2026-04-14 13:45 48.03075 45.31008 33059 ft 495 kts 324°
2026-04-14 13:46 48.08772 45.25328 33057 ft 495 kts 324°
2026-04-14 13:46 48.14504 45.19611 33055 ft 495 kts 324°
2026-04-14 13:47 48.20256 45.13834 33053 ft 495 kts 324°
2026-04-14 13:47 48.25927 45.08112 33049 ft 495 kts 324°
2026-04-14 13:48 48.31651 45.02344 33039 ft 495 kts 324°
2026-04-14 13:48 48.37359 44.96583 33038 ft 495 kts 324°
2026-04-14 13:49 48.43083 44.90789 33035 ft 496 kts 324°
2026-04-14 13:49 48.48803 44.84966 33027 ft 496 kts 324°
2026-04-14 13:50 48.54520 44.79121 33022 ft 496 kts 324°
2026-04-14 13:50 48.59267 44.74264 33022 ft 497 kts 324°
2026-04-14 13:51 48.65984 44.67446 33016 ft 497 kts 327°
2026-04-14 13:51 48.71950 44.62129 33020 ft 498 kts 330°
2026-04-14 13:52 48.78037 44.57115 33018 ft 498 kts 331°
2026-04-14 13:52 48.84098 44.52016 33014 ft 498 kts 330°
2026-04-14 13:53 48.90098 44.46769 33010 ft 498 kts 329°
2026-04-14 13:53 48.96050 44.41510 33006 ft 498 kts 329°
2026-04-14 13:54 49.02052 44.36239 32995 ft 498 kts 329°
2026-04-14 13:54 49.08061 44.30979 32996 ft 498 kts 329°
2026-04-14 13:55 49.14065 44.25696 32994 ft 498 kts 329°
2026-04-14 13:55 49.20053 44.20405 32996 ft 497 kts 329°
2026-04-14 13:56 49.26048 44.15101 32998 ft 497 kts 329°
2026-04-14 13:56 49.32023 44.09796 32994 ft 496 kts 329°
2026-04-14 13:57 49.37998 44.04477 32991 ft 496 kts 329°
2026-04-14 13:57 49.43959 43.99155 32991 ft 495 kts 329°
2026-04-14 13:58 49.49907 43.93816 32989 ft 495 kts 329°
2026-04-14 13:58 49.55878 43.88549 32986 ft 494 kts 330°
2026-04-14 13:59 49.61933 43.83532 32984 ft 494 kts 332°
2026-04-14 13:59 49.67960 43.78601 32984 ft 493 kts 332°
2026-04-14 14:00 49.73992 43.73567 32976 ft 492 kts 331°
2026-04-14 14:00 49.79994 43.68468 32974 ft 492 kts 331°
2026-04-14 14:01 49.85988 43.63371 32964 ft 492 kts 331°
2026-04-14 14:01 49.91990 43.58277 32963 ft 491 kts 331°
2026-04-14 14:02 49.97992 43.53174 32970 ft 491 kts 331°
2026-04-14 14:02 50.02971 43.48917 32969 ft 491 kts 331°
2026-04-14 14:03 50.08950 43.43787 32973 ft 491 kts 331°
2026-04-14 14:03 50.14931 43.38648 32965 ft 491 kts 331°
2026-04-14 14:04 50.20914 43.33510 32963 ft 491 kts 331°
2026-04-14 14:04 50.26889 43.28352 32961 ft 490 kts 331°
2026-04-14 14:05 50.32856 43.23185 32957 ft 490 kts 331°
2026-04-14 14:05 50.38829 43.17995 32955 ft 490 kts 331°
2026-04-14 14:06 50.44775 43.12796 32950 ft 489 kts 331°
2026-04-14 14:06 50.50725 43.07594 32949 ft 489 kts 331°
2026-04-14 14:07 50.56671 43.02401 32943 ft 489 kts 331°
2026-04-14 14:07 50.62612 42.97196 32940 ft 489 kts 331°
2026-04-14 14:08 50.68552 42.91980 32939 ft 488 kts 334°
2026-04-14 14:08 50.74857 42.88104 32934 ft 486 kts 342°
2026-04-14 14:09 50.81243 42.84561 32933 ft 486 kts 342°
2026-04-14 14:09 50.87620 42.80989 32935 ft 487 kts 342°
2026-04-14 14:10 50.94013 42.77389 32936 ft 487 kts 342°
2026-04-14 14:10 51.00362 42.73818 32940 ft 488 kts 342°
2026-04-14 14:11 51.06758 42.70225 32940 ft 488 kts 342°
2026-04-14 14:11 51.13194 42.66593 32950 ft 488 kts 342°
2026-04-14 14:12 51.19592 42.62961 32945 ft 488 kts 342°
2026-04-14 14:12 51.25951 42.59344 32945 ft 488 kts 342°
2026-04-14 14:13 51.32345 42.55712 32952 ft 488 kts 342°
2026-04-14 14:13 51.38743 42.52055 32953 ft 488 kts 342°
2026-04-14 14:14 51.45148 42.48378 32954 ft 488 kts 342°
2026-04-14 14:14 51.51544 42.44706 32957 ft 488 kts 342°
2026-04-14 14:15 51.57932 42.41021 32958 ft 488 kts 342°
2026-04-14 14:15 51.64304 42.37317 32959 ft 487 kts 342°
2026-04-14 14:16 51.70692 42.33607 32958 ft 487 kts 342°
2026-04-14 14:16 51.77076 42.29896 32955 ft 487 kts 342°
2026-04-14 14:17 51.86599 42.24337 32952 ft 487 kts 342°
2026-04-14 14:17 51.92969 42.20610 32950 ft 488 kts 342°
2026-04-14 14:18 51.99352 42.16852 32947 ft 488 kts 342°
2026-04-14 14:18 52.05743 42.13081 32948 ft 488 kts 342°
2026-04-14 14:19 52.12125 42.09324 32956 ft 489 kts 343°
2026-04-14 14:19 52.18559 42.05736 32962 ft 488 kts 344°
2026-04-14 14:20 52.25006 42.02248 32966 ft 489 kts 344°
2026-04-14 14:20 52.31567 41.98663 32982 ft 502 kts 344°
2026-04-14 14:21 52.38175 41.94770 32979 ft 515 kts 337°
2026-04-14 14:21 52.44662 41.89612 32979 ft 520 kts 336°
2026-04-14 14:22 52.51225 41.84401 32980 ft 521 kts 336°
2026-04-14 14:22 52.57719 41.79279 32982 ft 521 kts 336°
2026-04-14 14:23 52.64263 41.74086 32981 ft 521 kts 336°
2026-04-14 14:23 52.70778 41.68873 32977 ft 520 kts 336°
2026-04-14 14:24 52.77290 41.63654 32976 ft 520 kts 336°
2026-04-14 14:24 52.83793 41.58428 32976 ft 519 kts 336°
2026-04-14 14:25 52.90278 41.53204 32973 ft 518 kts 336°
2026-04-14 14:25 52.96766 41.47956 32990 ft 518 kts 336°
2026-04-14 14:26 53.03215 41.42713 32960 ft 515 kts 336°
2026-04-14 14:26 53.09638 41.37477 32970 ft 514 kts 336°
2026-04-14 14:27 53.16050 41.32246 32975 ft 513 kts 336°
2026-04-14 14:27 53.22361 41.26834 32969 ft 514 kts 329°
2026-04-14 14:28 53.27996 41.19473 32984 ft 515 kts 322°
2026-04-14 14:28 53.33522 41.11807 32987 ft 516 kts 322°
2026-04-14 14:29 53.39042 41.04121 32997 ft 515 kts 322°
2026-04-14 14:29 53.44548 40.96433 32998 ft 515 kts 322°
2026-04-14 14:30 53.50048 40.88723 33000 ft 515 kts 322°
2026-04-14 14:30 53.55550 40.81005 32995 ft 515 kts 322°
2026-04-14 14:31 53.61011 40.73308 32997 ft 516 kts 322°
2026-04-14 14:31 53.66511 40.65522 33006 ft 516 kts 322°
2026-04-14 14:32 53.71999 40.57717 33001 ft 516 kts 322°
2026-04-14 14:32 53.77490 40.49888 33006 ft 516 kts 322°
2026-04-14 14:33 53.80204 40.46013 32997 ft 502 kts 322°
2026-04-14 14:33 53.82840 40.42237 33007 ft 492 kts 322°
2026-04-14 14:33 53.87489 40.33825 33016 ft 491 kts 304°
2026-04-14 14:34 53.90594 40.23544 32890 ft 494 kts 292°
2026-04-14 14:34 53.91959 40.18127 31792 ft 505 kts 292°
2026-04-14 14:34 53.93347 40.12616 30877 ft 511 kts 291°
2026-04-14 14:35 53.94730 40.07130 30915 ft 491 kts 292°
2026-04-14 14:35 53.96076 40.01799 29856 ft 500 kts 290°
2026-04-14 14:35 53.97450 39.96297 28887 ft 505 kts 291°
2026-04-14 14:35 53.98805 39.90855 28468 ft 498 kts 291°
2026-04-14 14:36 54.00146 39.85441 27840 ft 495 kts 291°
2026-04-14 14:36 54.01473 39.80067 27247 ft 492 kts 291°
2026-04-14 14:36 54.02787 39.74725 26683 ft 489 kts 291°
2026-04-14 14:36 54.04095 39.69404 26096 ft 486 kts 291°
2026-04-14 14:37 54.05394 39.64115 25535 ft 483 kts 292°
2026-04-14 14:37 54.06687 39.58848 24973 ft 481 kts 292°
2026-04-14 14:37 54.07972 39.53605 24444 ft 478 kts 292°
2026-04-14 14:37 54.09245 39.48402 23916 ft 475 kts 292°
2026-04-14 14:38 54.10511 39.43207 23362 ft 473 kts 292°
2026-04-14 14:38 54.11767 39.38044 22847 ft 468 kts 292°
2026-04-14 14:38 54.13004 39.32948 22346 ft 464 kts 292°
2026-04-14 14:38 54.14233 39.27871 21831 ft 460 kts 292°
2026-04-14 14:39 54.15445 39.22850 21332 ft 456 kts 292°
2026-04-14 14:39 54.16630 39.17927 20807 ft 453 kts 292°
2026-04-14 14:39 54.17821 39.12968 20384 ft 448 kts 292°
2026-04-14 14:39 54.18999 39.08046 19900 ft 446 kts 292°
2026-04-14 14:40 54.20157 39.03187 19520 ft 440 kts 292°
2026-04-14 14:40 54.21308 38.98353 19068 ft 437 kts 292°
2026-04-14 14:40 54.22616 38.93701 18659 ft 432 kts 304°
2026-04-14 14:40 54.24488 38.89824 18515 ft 415 kts 320°
2026-04-14 14:41 54.26744 38.86945 18395 ft 396 kts 335°
2026-04-14 14:41 54.29208 38.84793 18099 ft 386 kts 338°
2026-04-14 14:41 54.31548 38.82800 17681 ft 382 kts 338°
2026-04-14 14:41 54.33916 38.80787 17240 ft 379 kts 338°
2026-04-14 14:42 54.36276 38.78779 16795 ft 375 kts 338°
2026-04-14 14:42 54.38603 38.76798 16283 ft 371 kts 338°
2026-04-14 14:42 54.40901 38.74839 15733 ft 368 kts 338°
2026-04-14 14:42 54.43186 38.72878 15172 ft 365 kts 338°
2026-04-14 14:43 54.45444 38.70940 14622 ft 361 kts 338°
2026-04-14 14:43 54.47676 38.69020 14082 ft 358 kts 338°
2026-04-14 14:43 54.49894 38.67112 13509 ft 354 kts 338°
2026-04-14 14:43 54.52083 38.65224 12908 ft 350 kts 338°
2026-04-14 14:44 54.54257 38.63344 12258 ft 346 kts 338°
2026-04-14 14:44 54.56396 38.61491 11633 ft 342 kts 338°
2026-04-14 14:44 54.58506 38.59661 11039 ft 338 kts 338°
2026-04-14 14:44 54.60574 38.57858 10792 ft 323 kts 338°
2026-04-14 14:45 54.62525 38.56153 10461 ft 313 kts 338°
2026-04-14 14:45 54.64449 38.54479 10016 ft 309 kts 339°
2026-04-14 14:45 54.66327 38.52845 9699 ft 298 kts 339°
2026-04-14 14:45 54.68181 38.51235 9346 ft 295 kts 339°
2026-04-14 14:46 54.70007 38.49652 9008 ft 293 kts 339°
2026-04-14 14:46 54.71825 38.48074 8656 ft 291 kts 339°
2026-04-14 14:46 54.73643 38.46491 8318 ft 290 kts 338°
2026-04-14 14:46 54.74832 38.45457 8108 ft 289 kts 338°
2026-04-14 14:47 54.77231 38.43377 7659 ft 288 kts 338°
2026-04-14 14:47 54.79017 38.41831 7319 ft 286 kts 338°
2026-04-14 14:47 54.80789 38.40293 7074 ft 281 kts 338°
2026-04-14 14:47 54.82515 38.38789 6884 ft 275 kts 338°
2026-04-14 14:48 54.83644 38.37806 6700 ft 274 kts 338°
2026-04-14 14:48 54.85898 38.35842 6286 ft 272 kts 338°
2026-04-14 14:48 54.87035 38.34848 6098 ft 270 kts 338°
2026-04-14 14:48 54.88704 38.33383 5819 ft 267 kts 338°
2026-04-14 14:49 54.90871 38.31473 5619 ft 260 kts 338°
2026-04-14 14:49 54.92491 38.30042 5552 ft 261 kts 338°
2026-04-14 14:49 54.93586 38.29075 5516 ft 261 kts 338°
2026-04-14 14:49 54.95725 38.27184 5438 ft 260 kts 338°
2026-04-14 14:50 54.96814 38.26216 5401 ft 260 kts 338°
2026-04-14 14:50 54.98428 38.24783 5344 ft 260 kts 338°
2026-04-14 14:50 55.00035 38.23362 5282 ft 260 kts 338°
2026-04-14 14:50 55.01654 38.21936 5216 ft 259 kts 338°
2026-04-14 14:51 55.03259 38.20517 5169 ft 259 kts 338°
2026-04-14 14:51 55.04867 38.19088 5108 ft 259 kts 338°
2026-04-14 14:51 55.06467 38.17660 5048 ft 258 kts 338°
2026-04-14 14:51 55.08068 38.16238 4995 ft 258 kts 338°
2026-04-14 14:52 55.09664 38.14815 4944 ft 258 kts 338°
2026-04-14 14:52 55.11259 38.13388 4880 ft 256 kts 338°
2026-04-14 14:52 55.12866 38.12275 4695 ft 243 kts 354°
2026-04-14 14:52 55.14501 38.11754 4566 ft 238 kts 356°
2026-04-14 14:53 55.16129 38.11243 4438 ft 238 kts 357°
2026-04-14 14:53 55.17755 38.10726 4367 ft 236 kts 357°
2026-04-14 14:53 55.19341 38.10218 4271 ft 231 kts 357°
2026-04-14 14:53 55.20925 38.09711 4189 ft 225 kts 358°
2026-04-14 14:54 55.22437 38.09233 4016 ft 221 kts 358°
2026-04-14 14:54 55.23913 38.08696 3834 ft 216 kts 350°